User: anonymous   Login
Location: Valley View Observatory
(41.0081°N, 76.5874°W)
Time: 23:31:58
(UTC-05:00)
Language:

Cosmos 2237 Rocket - Orbit

View from above orbital plane
View from above orbital plane
View from above satellite
View from above satellite

Ground track
Ground track

The orbit data is extracted from the following two-line orbital elements,

1 22566U 93016B   17052.19596240 -.00000113  00000-0 -33695-4 0  9998
2 22566  71.0080 310.3994 0012102 302.6443  57.3511 14.14940093234866
Epoch (UTC): 21 February 2017 04:42:11
Eccentricity: 0.0012102
inclination: 71.0080°
perigee height: 834 km
apogee height: 851 km
right ascension of ascending node: 310.3994°
argument of perigee: 302.6443°
revolutions per day: 14.14940093
mean anomaly at epoch: 57.3511°
orbit number at epoch: 23486

The dashed part of the orbit path shows where the satellite is in the earth's shadow,  

DLR